This is the latest recevied weather packets stored in our database for station/object N4VTB-13. If no packets are shown the sender has not sent any weather packets the latest 10 day(s).
| Time | Temp. | Humidity | Pressure | Rain* | Wind** | Luminosity | Snow |
|---|---|---|---|---|---|---|---|
| 1777504877 | 18.33° C | 59% | 1023.3 hPa | 0 mm | - | 49 W/m² | - |
| 1777503677 | 18.33° C | 58% | 1023.5 hPa | 0 mm | - | 60 W/m² | - |
| 1777501277 | 18.33° C | 58% | 1023.9 hPa | 0 mm | - | 53 W/m² | - |
| 1777497077 | 18.33° C | 57% | 1024.3 hPa | 0 mm | - | 90 W/m² | - |
| 1777495277 | 18.89° C | 55% | 1024.5 hPa | 0 mm | - | 722 W/m² | - |
| 1777494677 | 19.44° C | 55% | 1024.6 hPa | 0 mm | - | 830 W/m² | - |
| 1777486277 | 16.11° C | 60% | 1025.5 hPa | 0 mm | - | 723 W/m² | - |
| 1777485716 | 16.11° C | 60% | 1025.5 hPa | 0 mm | - | 701 W/m² | - |
| 1777480876 | 14.44° C | 67% | 1025.8 hPa | 0 mm | - | 524 W/m² | - |
| 1777474296 | 7.22° C | 92% | 1026.4 hPa | 0 mm | - | 33 W/m² | - |
| 1777472476 | 6.67° C | 93% | 1026.2 hPa | 0 mm | - | 23 W/m² | - |
| 1777468876 | 6.67° C | 92% | 1025.9 hPa | 0 mm | - | 7 W/m² | - |
| 1777464676 | 7.22° C | 90% | 1025.7 hPa | 0 mm | - | 0 W/m² | - |
| 1777456876 | 8.89° C | 89% | 1025.5 hPa | 0 mm | - | 0 W/m² | - |
| 1777454476 | 8.89° C | 88% | 1025.5 hPa | 0 mm | - | 0 W/m² | - |
| 1777451475 | 9.44° C | 87% | 1025.7 hPa | 0 mm | - | 0 W/m² | - |
| 1777449675 | 9.44° C | 88% | 1025.6 hPa | 0 mm | - | 0 W/m² | - |
| 1777447275 | 10° C | 87% | 1025.4 hPa | 0 mm | - | 0 W/m² | - |
| 1777446675 | 10° C | 87% | 1025.3 hPa | 0 mm | - | 0 W/m² | - |
| 1777440076 | 10° C | 84% | 1025 hPa | 0 mm | - | 0 W/m² | - |
| 1777438276 | 10.56° C | 83% | 1024.9 hPa | 0 mm | - | 0 W/m² | - |
| 1777435876 | 10.56° C | 81% | 1024.8 hPa | 0 mm | - | 0 W/m² | - |
| 1777432296 | 11.67° C | 78% | 1024.5 hPa | 0 mm | - | 0 W/m² | - |
| 1777431075 | 11.67° C | 78% | 1024.3 hPa | 0 mm | - | 5 W/m² | - |
| 1777422075 | 12.78° C | 72% | 1023.9 hPa | 0 mm | - | 77 W/m² | - |
* Rain latest hour (hover to see other rain measurements)
** Current wind speed in m/s (hover to see current wind gust speed)